Location: Pian di Sc�
(43.6333°N, 11.5500°E)
Time: 14:22:54
(UTC+00:00)

Timation 2 Rocket - Pass Details

Date: 07 August 2020
Orbit: 907 x 1074 km, 70.0° (Epoch: 24 September)

Event Time Altitude Azimuth Distance (km) Brightness Sun altitude
Exits shadow 01:14:29 39° 265° (W) 1,389 4.5 -24.5°
Maximum altitude 01:16:01 46° 303° (WNW) 1,239 4.5 -24.4°
Drops below altitude 10° 01:21:49 10° 16° (NNE) 2,621 7.3 -23.8°
Sets 01:24:26 0° 23° (NNE) 3,555 8.3 -23.6°
